Probability
0 0 0 0 0 0 0 0 0 0 0 0 0 0 0 0 0 0 1 3 3 2 1 0 0 0 0 1 1 1 0 0 0 0 0 0 0 0 0 0 0 0 0
0 0 0 0 0 0 0 0 0 0 0 0 0 0 0 0 0 0 0 2 3 3 1 0 0 0 0 0 0 0 0 0 0 0 0 0 0 0 0 0 0 0 0
0 0 0 0 0 0 0 0 0 0 0 0 0 0 0 0 0 0 0 0 1 2 1 0 0 0 0 0 0 0 0 0 0 0 0 0 0 0 0 0 0 0 0
0 0 0 0 0 0 0 0 0 0 0 0 0 0 0 0 0 0 0 0 0 0 0 0 0 0 0 0 0 0 0 0 0 0 0 0 0 0 0 0 0 0 0
0 0 0 0 0 0 0 0 0 0 0 0 0 0 0 0 0 0 0 0 0 0 0 0 0 0 0 0 0 0 0 0 0 0 0 0 0 0 0 0 0 0 0
0 0 0 0 0 0 0 0 0 0 0 0 0 0 0 0 0 0 0 0 0 0 0 0 0 0 0 0 0 0 0 0 0 0 0 0 0 0 0 0 0 0 0
1 2 2 1 1 1 2 2 0 0 0 0 0 0 0 0 0 0 0 0 0 0 0 0 0 0 0 0 0 0 0 0 0 0 0 0 0 0 0 0 0 0 0
6 9 7 3 2 4 5 4 1 0 0 0 0 0 0 0 0 0 0 0 0 0 0 0 0 0 0 0 0 0 0 0 0 0 0 0 0 0 0 0 0 0 0
21 27 21 7 5 7 8 6 2 0 0 0 0 0 0 0 0 0 0 0 0 0 0 0 0 0 0 0 0 0 0 0 0 0 0 0 0 0 0 0 0 0 0
35 41 30 11 5 7 9 8 4 1 0 0 0 0 0 0 0 0 0 0 0 0 0 0 0 0 0 0 0 0 0 0 0 0 0 0 0 0 0 0 0 0 0
33 33 22 8 3 4 7 9 8 3 1 0 0 0 0 0 0 0 0 0 0 0 0 0 0 0 0 0 0 0 0 0 0 0 0 0 0 0 0 0 0 0 0
16 14 9 3 1 1 4 8 8 4 1 0 0 0 0 0 0 0 0 0 0 0 0 0 0 0 0 0 0 0 0 0 0 0 0 0 0 0 0 0 0 0 0
5 4 3 1 0 0 1 3 4 2 0 0 0 0 0 0 0 0 0 0 0 0 0 0 0 0 0 0 0 0 0 0 0 0 0 0 0 0 0 0 0 0 0
2 1 0 0 0 0 0 1 1 0 0 0 0 0 0 0 0 0 0 0 0 0 0 0 0 0 0 0 0 0 0 0 0 0 0 0 0 0 0 0 0 0 0
1 0 0 0 0 0 0 0 0 0 0 0 0 0 0 0 0 0 0 0 0 0 0 0 0 0 0 0 0 0 0 0 0 0 0 0 0 0 0 0 0 0 0
0 0 0 0 0 0 0 0 0 0 0 0 1 0 0 0 0 0 0 0 0 0 0 0 0 0 0 0 0 0 0 0 0 0 0 0 0 0 0 0 0 0 0
0 0 0 0 0 0 0 0 0 0 0 0 0 0 0 0 0 0 0 0 0 0 0 0 0 0 0 0 0 0 0 0 0 0 0 0 0 0 0 0 0 0 0
0 0 0 0 0 0 0 0 0 0 0 0 0 0 0 0 0 0 0 0 0 0 0 0 0 0 0 0 0 0 0 0 0 0 0 0 0 0 0 0 0 0 0
0 0 0 0 0 0 0 0 0 0 0 0 0 0 0 0 0 0 0 0 0 0 0 0 0 0 0 0 0 0 0 0 0 0 0 0 0 0 0 0 0 0 0
0 0 0 0 0 0 0 0 0 0 0 0 0 0 0 0 0 0 0 0 0 0 0 0 0 0 0 0 0 0 0 0 0 0 0 0 0 0 0 0 0 0 0
0 0 0 0 0 0 0 0 0 0 0 0 0 0 0 0 0 0 0 0 0 0 0 0 0 0 0 0 0 0 0 0 0 0 0 0 0 0 0 0 0 0 0
4 2 1 0 0 0 0 0 0 0 0 0 0 0 0 0 0 0 0 0 0 0 0 0 0 0 0 0 0 0 0 0 0 0 0 0 0 0 0 0 0 0 0
19 14 7 2 0 0 0 0 0 0 0 0 0 0 0 0 0 0 0 0 0 0 0 0 0 0 0 0 0 0 0 0 0 0 0 0 0 0 0 0 0 0 0
29 24 14 4 0 0 0 0 0 0 0 0 0 0 0 0 0 0 0 0 0 0 0 0 0 0 0 0 0 0 0 0 0 0 0 0 0 0 0 0 0 0 0
20 18 12 4 0 0 0 0 0 0 0 0 0 0 0 0 0 0 0 0 0 0 0 0 0 0 0 0 0 0 0 0 0 0 0 0 0 0 0 0 0 0 0
9 7 5 2 0 0 0 0 0 0 0 0 0 0 0 0 0 0 0 0 0 0 0 0 0 0 0 0 0 0 0 0 0 0 0 0 0 0 0 0 0 0 0
Wind_Speed
4 5 4 4 5 4 3 2 2 3 5 6 6 6 7 7 6 5 5 14 14 12 11 11 12 12 11 11 10 10 10 9 7 6 5 4 4 5 6 6 5 6 7
4 5 4 4 2 2 3 2 4 4 4 5 5 4 4 5 6 6 5 9 16 16 14 13 13 13 13 13 12 12 11 10 9 7 6 5 4 4 4 5 5 6 6
4 5 4 4 3 2 3 3 4 3 5 3 3 4 4 4 4 6 5 4 7 14 16 16 15 14 14 13 12 12 10 9 8 6 6 5 4 3 3 3 4 5 6
4 4 4 5 5 4 3 4 3 2 4 3 3 3 4 0 4 5 5 4 4 6 10 15 16 16 16 14 12 11 10 9 7 6 5 4 3 3 3 3 4 4 5
5 3 4 3 5 3 3 4 3 2 3 3 4 2 3 3 2 4 5 6 4 5 4 8 14 14 15 16 15 13 11 9 7 6 5 4 3 2 3 3 3 3 5
5 4 3 4 4 4 3 4 4 3 3 3 4 4 2 1 3 4 3 3 4 5 4 5 6 8 13 14 14 14 12 9 9 8 7 5 4 2 2 2 3 4 5
3 4 3 4 4 4 4 4 3 3 3 3 4 3 1 2 4 2 2 2 4 4 4 3 4 5 6 12 12 14 14 13 12 12 12 9 6 3 3 3 3 3 3
5 3 5 3 3 4 5 5 4 3 1 2 4 3 2 1 1 2 1 2 3 1 3 5 4 5 5 4 7 12 12 13 13 14 15 14 10 6 4 3 3 2 2
5 4 4 4 3 3 4 5 6 6 2 2 2 4 4 3 2 2 4 2 3 2 1 2 4 5 6 5 4 8 10 11 12 13 14 15 14 10 7 6 5 5 4
5 3 4 4 3 2 4 5 6 5 6 3 4 3 5 5 4 3 2 3 5 4 3 1 2 4 6 6 6 7 9 10 12 12 13 14 15 14 11 10 10 11 11
5 5 5 5 5 4 4 5 4 6 5 6 5 6 5 2 4 4 3 3 3 3 4 4 3 3 4 5 5 6 8 9 11 11 12 12 13 14 14 14 14 13 12
3 5 6 6 6 5 4 4 4 6 6 7 7 8 6 3 3 2 3 5 4 4 4 3 3 3 3 4 7 8 7 7 8 9 10 11 11 11 12 13 12 12 12
2 3 4 4 5 5 6 5 4 5 7 9 10 8 7 5 4 3 3 4 4 3 4 3 4 4 4 4 5 9 7 7 7 8 8 9 10 10 10 10 9 9 9
2 1 1 2 4 5 5 5 5 5 5 7 9 10 6 6 4 4 3 4 3 3 3 4 4 5 4 4 7 8 6 9 8 7 7 8 7 7 7 7 8 8 8
2 1 2 2 2 2 3 5 4 5 5 6 6 7 6 4 5 3 2 3 5 4 3 3 3 5 5 4 8 5 6 9 9 8 7 7 6 6 5 5 6 6 6
4 4 4 4 4 3 3 4 4 4 5 4 3 4 3 3 2 5 2 1 2 5 5 5 4 5 6 6 8 4 7 12 10 9 7 7 5 4 4 4 4 5 6
4 4 3 3 4 4 4 4 4 5 6 5 4 4 3 3 1 5 4 2 2 2 3 3 2 4 6 6 4 3 6 6 5 9 8 7 5 3 2 3 4 6 6
5 4 5 4 4 5 4 4 4 5 6 6 5 5 4 3 3 3 5 3 2 2 2 3 3 4 6 7 7 5 5 6 7 11 11 9 7 4 1 1 3 5 5
5 5 4 4 5 6 5 5 5 4 4 5 5 5 4 5 4 0 2 1 2 4 4 2 3 3 3 5 7 5 5 3 6 10 11 9 8 7 5 2 1 3 2
6 6 6 5 5 6 6 7 7 6 5 5 5 5 5 5 5 3 1 0 1 3 6 5 3 3 3 4 6 5 4 3 3 7 7 8 10 10 8 6 4 2 1
6 6 5 5 4 4 6 8 8 8 7 6 6 6 7 8 9 7 4 3 1 2 4 5 4 3 4 4 6 5 5 4 5 4 4 4 5 4 5 7 7 5 4
5 5 4 4 5 5 8 10 7 6 7 7 8 8 8 10 13 14 12 8 7 6 6 5 5 5 8 7 5 5 5 5 4 5 5 5 6 5 6 6 10 10 7
5 5 5 5 5 5 10 11 10 5 6 8 9 9 9 10 12 8 11 14 13 15 14 7 6 7 7 8 8 7 6 6 5 5 5 4 5 5 5 7 17 15 12
4 5 5 5 5 5 10 11 10 5 5 5 5 5 7 8 10 10 8 7 8 9 10 8 6 5 5 6 10 9 8 6 4 3 5 4 4 4 3 5 14 15 12
4 4 4 5 5 5 11 11 9 4 5 6 6 6 5 5 12 15 8 6 4 3 2 4 5 3 3 2 4 6 6 5 4 3 4 4 4 3 3 4 8 14 12
4 3 2 3 4 5 9 13 11 4 5 5 5 4 5 3 5 11 6 4 2 1 2 3 3 2 1 1 2 5 6 6 4 4 5 4 3 4 3 3 4 6 6
Wind_Direction
153 157 156 167 197 167 174 203 159 80 59 49 56 70 89 94 101 92 74 76 78 79 83 88 89 85 80 78 80 87 90 94 93 93 95 84 70 64 63 56 44 37 17
159 160 156 170 176 136 163 165 98 102 87 70 63 56 89 126 131 129 106 78 74 75 81 88 88 85 82 83 83 83 83 81 79 76 80 78 67 56 62 62 60 57 36
180 162 158 155 154 197 170 132 112 122 111 120 102 77 54 41 99 106 100 104 83 70 73 80 83 82 78 79 83 83 81 82 80 79 83 80 66 46 50 62 71 69 48
204 166 153 158 177 180 137 109 119 117 132 150 132 129 115 119 80 120 120 97 99 92 73 77 77 76 73 70 77 80 77 79 76 74 72 72 61 37 34 61 78 65 44
202 171 154 169 170 154 140 148 148 178 154 124 107 83 82 69 81 76 102 113 110 112 113 90 83 77 71 65 65 67 67 69 73 73 66 57 43 32 37 62 60 43 32
203 174 152 184 173 152 149 155 160 179 132 142 137 109 87 98 73 64 57 99 112 113 135 142 110 85 76 69 62 56 52 60 72 74 70 62 51 49 40 29 12 15 19
231 166 165 193 173 164 168 163 151 151 141 150 110 118 182 184 103 139 144 102 102 139 160 130 130 127 96 73 62 58 50 55 65 65 60 55 54 64 64 37 3 350 4
233 189 183 201 180 167 175 142 125 133 197 174 141 148 171 45 306 165 110 142 148 133 127 138 128 115 116 101 71 63 53 50 56 55 52 46 46 60 66 50 23 0 340
236 190 195 197 194 172 170 155 146 155 182 281 178 153 167 187 190 188 189 201 127 139 134 74 124 111 110 105 87 58 58 49 50 49 49 46 48 52 55 57 53 46 39
222 196 197 215 208 187 182 180 162 157 155 204 280 220 187 165 162 166 205 199 168 181 138 83 68 108 109 106 100 75 64 56 53 51 49 48 47 48 56 62 61 60 59
206 198 207 211 216 200 196 185 181 171 165 172 224 262 252 207 186 144 178 194 173 178 165 169 129 94 112 123 116 95 79 69 62 55 51 48 46 49 56 61 60 57 56
217 217 207 213 212 201 203 195 186 185 184 184 202 243 251 217 217 177 166 178 179 192 165 148 145 131 112 113 119 124 106 89 80 72 63 56 49 46 48 52 53 53 53
192 232 230 227 229 215 209 209 201 198 195 199 201 218 250 232 201 217 161 171 177 173 153 158 171 151 155 139 139 147 134 121 109 96 81 69 58 49 46 46 47 47 42
156 201 221 214 226 226 213 203 211 215 216 213 205 201 227 266 241 211 173 160 158 158 156 172 168 161 169 155 158 165 151 146 141 124 105 88 72 57 48 46 44 39 32
148 201 228 213 196 189 196 192 208 220 224 225 213 202 198 225 289 275 196 156 149 160 188 172 162 172 164 138 165 186 161 161 154 143 123 104 87 68 56 48 42 32 18
164 179 228 198 162 158 173 184 202 220 226 230 221 210 202 170 257 287 280 222 152 157 182 191 178 165 158 158 179 219 145 161 160 159 146 129 108 80 59 50 39 22 4
166 177 203 231 164 163 179 191 205 211 215 214 206 190 169 136 157 276 278 262 251 193 183 193 157 156 148 163 159 173 154 166 171 173 168 159 141 106 50 29 19 7 360
180 185 203 201 163 161 172 183 193 194 192 187 179 170 155 130 96 286 275 270 277 293 230 178 156 167 171 171 163 190 175 193 170 184 182 180 174 170 185 0 1 358 6
185 191 212 193 165 163 170 174 174 174 171 168 164 160 147 124 114 170 301 314 349 316 301 232 180 177 184 172 162 183 184 217 171 174 186 192 192 192 203 225 304 344 26
196 200 208 194 174 168 170 174 177 182 184 184 183 182 175 159 157 172 196 93 22 312 285 260 202 181 197 182 165 171 192 205 198 174 187 185 196 199 205 215 235 255 162
203 206 203 184 180 182 189 183 181 182 186 194 202 206 205 201 196 198 197 181 175 273 276 256 221 186 193 187 190 177 190 187 207 188 165 175 174 189 201 216 222 217 177
208 205 195 185 188 207 196 184 177 184 191 202 214 218 218 219 220 220 223 220 217 232 244 245 225 201 204 199 186 182 182 179 207 197 168 188 177 193 196 194 200 194 181
200 210 203 201 205 198 175 176 186 209 216 214 212 210 212 214 215 222 229 231 235 237 233 233 236 225 207 195 186 191 192 195 205 189 167 194 183 198 196 189 179 181 182
214 209 214 215 215 193 184 185 186 218 256 252 234 213 203 200 200 205 213 221 228 233 230 224 232 244 234 202 190 196 194 195 213 186 150 179 181 192 171 152 175 179 183
282 253 229 221 220 204 191 192 186 213 246 256 249 233 226 216 198 195 203 221 225 225 174 143 119 94 44 304 209 175 170 168 194 198 174 176 176 172 175 166 186 188 186
320 305 266 234 226 219 198 197 197 218 243 254 254 238 214 173 149 178 193 202 205 202 135 125 117 128 170 215 189 175 173 179 180 182 188 182 171 149 183 192 167 180 193